Weather History for KMYL - November, 2014

Change the Weather History Date:

Tuesday, November 18, 2014

  Actual Average Record
Temperature  
Mean Temperature 18 °F 27 °F  
Max Temperature 33 °F 36 °F 54 °F (2008)
Min Temperature 2 °F 19 °F 2 °F (2000)
Degree Days  
Heating Degree Days 47 38  
Month to date heating degree days 672 608  
Since 1 July heating degree days 1642 2151  
Cooling Degree Days 0 0  
Month to date cooling degree days 0 0  
Year to date cooling degree days 185 25  
Moisture  
Dew Point 8 °F    
Average Humidity 68    
Maximum Humidity 87    
Minimum Humidity 49    
Precipitation  
Precipitation T in 0.09 in 1.14 in (1982)
Month to date precipitation 0.87 1.80  
Year to date precipitation 19.88 17.12  
Sea Level Pressure  
Sea Level Pressure 30.41 in    
Wind  
Wind Speed 1 mph (ENE)    
Max Wind Speed 6 mph    
Max Gust Speed 6 mph    
Visibility 6 miles    
Events Fog , Snow    
T = Trace of Precipitation, MM = Missing Value Source: NWS Daily Summary

Daily Weather History Graph

Daily Weather History Graph

Search for Another Location

Airport or City:

Trip Planner

Search our weather history database for the weather conditions in past years. The results will help you decide how hot, cold, wet, or windy it might be!

Date:

Astronomy

Nov. 18, 2014 Rise Set
Actual Time 7:45 AM MST 5:12 PM MST
Civil Twilight 7:13 AM MST 5:44 PM MST
Nautical Twilight 6:38 AM MST 6:20 PM MST
Astronomical Twilight 6:03 AM MST 6:55 PM MST
Moon 3:38 AM MST (11/18) 3:19 PM MST (11/18)
Length of Visible Light 10h 30m
Length of Day
9h 26m
Waning Crescent, 14% of the Moon is Illuminated
Nov 18
Waning Crescent
Nov 22
New
Nov 29
First Quarter
Dec 6
Full
Dec 14
Last Quarter

Hourly Weather History & Observations

Time (MST) Temp. Windchill Dew Point Humidity Pressure Visibility Wind Dir Wind Speed Gust Speed Precip Events Conditions
12:51 AM 8.1 °F 1.4 °F 3.9 °F 83% 30.53 in 9.0 mi NE 3.5 mph - 0.00 in Snow Light Snow
1:51 AM 6.1 °F - 1.9 °F 83% 30.52 in 10.0 mi Calm Calm - 0.00 in   Clear
2:51 AM 5.0 °F - 1.0 °F 84% 30.51 in 9.0 mi Calm Calm - 0.00 in   Clear
3:51 AM 5.0 °F -2.1 °F -0.0 °F 80% 30.51 in 9.0 mi ENE 3.5 mph - 0.00 in Snow Light Snow
4:12 AM 3.9 °F - -0.9 °F 80% 30.31 in 10.0 mi Calm Calm - 0.00 in   Partly Cloudy
4:25 AM 1.9 °F - -0.9 °F 88% 30.31 in 10.0 mi Calm Calm - 0.00 in   Mostly Cloudy
4:49 AM 3.2 °F - 1.4 °F 92% 30.30 in 1.8 mi Calm Calm - 0.00 in   Overcast
4:51 AM 5.0 °F - 1.9 °F 87% 30.49 in 1.2 mi Calm Calm - 0.00 in   Overcast
4:59 AM 3.9 °F - 1.9 °F 91% 30.30 in 1.0 mi Calm Calm - N/A   Mist
5:06 AM 5.0 °F - 1.9 °F 87% 30.29 in 0.5 mi Calm Calm - N/A Fog Light Freezing Fog
5:51 AM 5.0 °F - 1.0 °F 84% 30.50 in 0.2 mi Calm Calm - N/A Fog Light Freezing Fog
6:51 AM 5.0 °F - -0.0 °F 80% 30.51 in 0.2 mi Calm Calm - N/A   Haze
7:34 AM 6.1 °F - 1.0 °F 80% 30.30 in 1.2 mi Calm Calm - N/A   Haze
7:37 AM 6.1 °F - -0.0 °F 76% 30.30 in 3.0 mi Calm Calm - N/A   Haze
7:45 AM 6.1 °F - -0.0 °F 76% 30.29 in 1.8 mi Calm Calm - N/A   Haze
7:51 AM 6.1 °F - -0.0 °F 76% 30.53 in 0.8 mi Calm Calm - N/A   Haze
8:51 AM 8.1 °F - 3.9 °F 83% 30.53 in 0.2 mi Calm Calm - N/A Fog Light Freezing Fog
9:51 AM 14.0 °F - 9.0 °F 80% 30.52 in 0.2 mi Calm Calm - N/A   Haze
10:38 AM 19.0 °F - 14.0 °F 81% 30.30 in 1.5 mi Calm Calm - N/A   Haze
10:40 AM 19.0 °F - 14.0 °F 81% 30.30 in 3.0 mi Calm Calm - N/A   Haze
10:51 AM 19.0 °F - 15.1 °F 85% 30.51 in 10.0 mi Calm Calm - N/A   Scattered Clouds
11:51 AM 21.0 °F 16.2 °F 17.1 °F 85% 30.48 in 10.0 mi South 3.5 mph - N/A   Clear
12:51 PM 23.0 °F 17.0 °F 17.1 °F 78% 30.44 in 10.0 mi South 4.6 mph - N/A   Clear
1:51 PM 26.1 °F - 15.1 °F 63% 30.42 in 10.0 mi Calm Calm - N/A   Clear
2:51 PM 30.9 °F - 17.1 °F 57% 30.38 in 10.0 mi Calm Calm - N/A   Clear
3:51 PM 32.0 °F - 16.0 °F 52% 30.36 in 10.0 mi Calm Calm - N/A   Clear
4:51 PM 28.9 °F - 16.0 °F 58% 30.36 in 10.0 mi Calm Calm - N/A   Clear
5:51 PM 25.0 °F - 16.0 °F 69% 30.38 in 10.0 mi Calm Calm - N/A   Clear
6:51 PM 21.0 °F - 16.0 °F 81% 30.40 in 9.0 mi Calm Calm - 0.00 in Snow Light Snow
7:51 PM 18.0 °F - 14.0 °F 84% 30.41 in 7.0 mi Calm Calm - 0.00 in Snow Light Snow
8:51 PM 16.0 °F 10.4 °F 12.9 °F 88% 30.40 in 9.0 mi NE 3.5 mph - 0.00 in Snow Light Snow
9:51 PM 14.0 °F - 10.0 °F 84% 30.38 in 9.0 mi Calm Calm - 0.00 in   Clear
10:51 PM 12.0 °F - 9.0 °F 88% 30.37 in 10.0 mi Calm Calm - 0.00 in   Clear
11:51 PM 14.0 °F 6.5 °F 10.9 °F 88% 30.35 in 9.0 mi NE 4.6 mph - 0.00 in Snow Light Snow